Location: Demmingen
(48.6757°N, 10.4375°E)
Time: 03:35:18
(UTC+00:00)

SAR-Lupe-1 - Pass Details

Date: 23 May 2024
Orbit: 479 x 482 km, 98.1° (Epoch: 04 May)

Event Time Altitude Azimuth Distance (km) Brightness Sun altitude
Rises 02:31:47 0° 10° (N) 2,553 8.7 -8.0°
Reaches altitude 10° 02:33:53 10° 7° (N) 1,668 7.6 -7.7°
Maximum altitude 02:37:24 60° 288° (WNW) 558 4.2 -7.3°
Drops below altitude 10° 02:40:54 10° 208° (SSW) 1,655 6.2 -6.9°
Enters shadow 02:41:25 - 207° (SSW) 1,867 6.4 -6.8°
